Torna al catalogo

DELTA 1 DEB

AttivoSSO
NORAD 7076·DEBRIS·🇺🇸 United States

Lanciato Nov 6, 1973 da Vandenberg Space Force Base

Loading…

Prossimi Passaggi (prossime 24 ore)

TLE

AggiornatoSource: Space-Track

Epoca: Sep 14, 2026, 11:46 UTC

1 07076U 73086BU  26257.49053483 -.00000038  00000-0  65096-4 0  9994
2 07076 102.3050 259.4593 0011764 267.8281 259.6736 12.39871185391380

Traccia DELTA 1 DEB in tempo reale con AllMySat

Download on the App Store